SOUTHWEST HAWAII 215NM SSW of Hilo, HI (51002)

Conditions for Monday

Daily
Weekly
Monthly
Marine Data Graph

Marine & Boating Location Search

Enter a coastal zip code for marine weather.

General Information

Location: 17.056 North -157.803 West
Buoy Type: 3-meter discus buoy
Buoy Hull: 3D90
Payload: ARES payload
Owned by: NDBC
Windspeed: Measured by obtained from anemometer
Sea Surface: Measured by Intake

Weather and Wave Data

Time Temp Humidity Wind Dominant Wave Wind Wave Wave Swell Pressure
  Air
(°F)
Water
(°F)
  Dir Speed
(kts)
Speed
(mph)
Period
(sec)
Height
(ft)
Range
(ft)
Period
(sec)
Height
(ft)
Range
(ft)
Period
(sec)
Height
(ft)
Range
(ft)
Atmo.
(in)
Tend.
(in)
20:00 81
-
66 ENE 13.6 15.7 - - - - - - 29.89 +0.05
20:30 81 82 68 ENE 13.6 15.7 - - - - - - 29.90 -
20:40 81 82 67 ENE 15.6 17.9 - - - - - - 29.90 -
20:50 81 82 67 ENE 13.6 15.7 14 9.84 exactly 9.8 6 3.28 2.46 - 4.10 14 9.84 9.02 - 10.66 29.90 -
21:10 81 82 68 ENE 13.6 15.7 - - - - - - 29.90 -
21:20 81 82 70 ENE 15.6 17.9 - - - - - - 29.90 -
21:30 81 82 69 ENE 13.6 15.7 - - - - - - 29.89 -
21:40 81 82 68 East 13.6 15.7 - - - - - - 29.89 -
21:50 81 82 70 ENE 13.6 15.7 13 7.87 exactly 7.9 6 3.28 2.46 - 4.10 13 6.56 5.74 - 7.38 29.89 -
22:40 81 82 71 East 13.6 15.7 - - - - - - 29.88 -
23:10 81 82 69 East 15.6 17.9 - - - - - - 29.89 -
23:20 81 82 70 ENE 15.6 17.9 - - - - - - 29.89 -
23:30 81 82 70 ENE 15.6 17.9 - - - - - - 29.89 -
23:40 81 82 68 ENE 15.6 17.9 - - - - - - 29.89 -
23:50 81 82 68 ENE 15.6 17.9 14 7.22 exactly 7.2 5 4.92 4.10 - 5.74 14 6.56 5.74 - 7.38 29.88 -
00:10 81 82 69 ENE 15.6 17.9 - - - - - - 29.88 -
00:20 81 82 70 ENE 15.6 17.9 - - - - - - 29.88 -
00:30 81 82 71 ENE 15.6 17.9 - - - - - - 29.88 -
01:10 81 82 67 ENE 15.6 17.9 - - - - - - 29.87 -
01:20 81 82 67 ENE 15.6 17.9 - - - - - - 29.86 -
01:30 81
-
68 East 15.6 17.9 - - - - - - 29.86 -
01:40 81 82 68 East 15.6 17.9 - - - - - - 29.86 -
02:00 81 82 69 East 13.6 15.7 - - - - - - 29.85 -0.03
02:10 81 82 70 East 13.6 15.7 - - - - - - 29.85 -
02:20 80 82 71 East 13.6 15.7 - - - - - - 29.85 -
02:30 81 82 68 East 13.6 15.7 - - - - - - 29.84 -
02:40 81 82 69 East 13.6 15.7 - - - - - - 29.84 -
02:50 81 82 68 East 13.6 15.7 13 8.20 exactly 8.2 7 4.92 4.10 - 5.74 13 6.56 5.74 - 7.38 29.84 -
03:00 81 82 68 East 13.6 15.7 - - - - - - 29.84 -0.04
03:10 80 82 67 East 13.6 15.7 - - - - - - 29.83 -
03:20 80 82 70 ENE 13.6 15.7 - - - - - - 29.83 -
03:40 80 82 70 East 13.6 15.7 - - - - - - 29.83 -
04:10 80 82 70 East 11.7 13.4 - - - - - - 29.83 -
04:20 80 82 73 ENE 11.7 13.4 - - - - - - 29.83 -
04:30 80 82 73 ENE 9.7 11.2 - - - - - - 29.83 -
04:40 80 82 73 ENE 13.6 15.7 - - - - - - 29.83 -
05:10 80 82 70 ENE 13.6 15.7 - - - - - - 29.83 -
05:20 80 82 69 ENE 13.6 15.7 - - - - - - 29.84 -
05:30 80 82 69 ENE 13.6 15.7 - - - - - - 29.84 -
05:40 80 82 69 ENE 13.6 15.7 - - - - - - 29.84 -
05:50 81 82 66 ENE 13.6 15.7 14 7.87 exactly 7.9 6 3.28 2.46 - 4.10 14 6.56 5.74 - 7.38 29.85 -
06:00 81 82 67 ENE 11.7 13.4 - - - - - - 29.85 +0.01
06:10 81 82 67 ENE 13.6 15.7 - - - - - - 29.85 -
06:20 81 82 67 ENE 13.6 15.7 - - - - - - 29.85 -
06:30 81 82 67 ENE 13.6 15.7 - - - - - - 29.86 -
06:40 81 82 67 ENE 11.7 13.4 - - - - - - 29.86 -
06:50 80 82 71 ENE 13.6 15.7 12 7.55 exactly 7.5 5 3.28 2.46 - 4.10 12 6.56 5.74 - 7.38 29.86 -
07:10 81 82 69 ENE 13.6 15.7 - - - - - - 29.86 -
07:30 81 82 67 ENE 13.6 15.7 - - - - - - 29.86 -
07:40 81 82 68 ENE 13.6 15.7 - - - - - - 29.87 -
07:50 81 82 70 ENE 13.6 15.7 12 6.89 exactly 6.9 4 4.92 4.10 - 5.74 12 4.92 4.10 - 5.74 29.87 -
08:10 81 82 68 ENE 13.6 15.7 - - - - - - 29.87 -
08:20 81 82 67 ENE 13.6 15.7 - - - - - - 29.87 -
08:30 81 82 67 ENE 13.6 15.7 - - - - - - 29.87 -
08:40 81 82 68 ENE 13.6 15.7 - - - - - - 29.88 -
08:50 81 82 70 ENE 13.6 15.7 13 7.22 exactly 7.2 6 3.28 2.46 - 4.10 13 6.56 5.74 - 7.38 29.88 -
09:10 81 82 70 ENE 13.6 15.7 - - - - - - 29.88 -
09:30 80 82 73 ENE 15.6 17.9 - - - - - - 29.88 -
09:40 80 82 74 ENE 13.6 15.7 - - - - - - 29.88 -
10:00 81 82 70 ENE 15.6 17.9 - - - - - - 29.88 +0.02
10:10 81 82 71 ENE 15.6 17.9 - - - - - - 29.88 -
10:40 81 82 70 East 15.6 17.9 - - - - - - 29.86 -
10:50 81 82 69 East 15.6 17.9 8 7.55 exactly 7.5 6 4.92 4.10 - 5.74 8 6.56 5.74 - 7.38 29.86 -
11:10 81 82 69 East 15.6 17.9 - - - - - - 29.86 -
11:20 81 82 68 East 15.6 17.9 - - - - - - 29.85 -
11:30 81 82 70 East 15.6 17.9 - - - - - - 29.85 -
11:40 81 82 70 ENE 15.6 17.9 - - - - - - 29.85 -
11:50 81 82 68 East 15.6 17.9 13 8.20 exactly 8.2 8 6.56 5.74 - 7.38 13 4.92 4.10 - 5.74 29.84 -
12:10 81 82 69 ENE 15.6 17.9 - - - - - - 29.84 -
12:20 81 82 70 East 15.6 17.9 - - - - - - 29.83 -
12:40 81 82 72 ENE 17.5 20.1 - - - - - - 29.82 -
12:50 81 82 71 East 17.5 20.1 13 7.55 exactly 7.5 8 6.56 5.74 - 7.38 13 4.92 4.10 - 5.74 29.82 -
13:00 81 82 69 East 15.6 17.9 - - - - - - 29.82 -0.06
13:10 81 82 71 ENE 15.6 17.9 - - - - - - 29.81 -
13:20 81 82 72 East 15.6 17.9 - - - - - - 29.81 -
13:40 81 82 72 ENE 15.6 17.9 - - - - - - 29.80 -
14:30 81 82 72 East 15.6 17.9 - - - - - - 29.79 -
14:40 81 82 74 East 15.6 17.9 - - - - - - 29.78 -
15:00 81 82 72 East 15.6 17.9 - - - - - - 29.79 -0.05
15:10 81 82 72 East 15.6 17.9 - - - - - - 29.79 -
15:30 81 82 75 ENE 17.5 20.1 - - - - - - 29.79 -
15:40 81 82 75 ENE 17.5 20.1 - - - - - - 29.80 -
15:50 81 82 75 ENE 15.6 17.9 13 7.55 exactly 7.5 7 4.92 4.10 - 5.74 13 4.92 4.10 - 5.74 29.80 -
16:10 81 82 77 ENE 15.6 17.9 - - - - - - 29.80 -
16:30 81 82 76 ENE 15.6 17.9 - - - - - - 29.81 -
16:40 81 82 74 East 15.6 17.9 - - - - - - 29.81 -
16:50 82 82 72 East 15.6 17.9 12 7.22 exactly 7.2 8 4.92 4.10 - 5.74 12 4.92 4.10 - 5.74 29.81 -
17:00 81 82 72 East 15.6 17.9 - - - - - - 29.82 +0.02
17:10 82 82 68 East 15.6 17.9 - - - - - - 29.82 -
17:20 82 82 69 East 13.6 15.7 - - - - - - 29.82 -
17:30 81 82 72 East 13.6 15.7 - - - - - - 29.83 -
17:50 81 82 74 East 11.7 13.4 11 7.22 exactly 7.2 6 4.92 4.10 - 5.74 11 6.56 5.74 - 7.38 29.83 -
18:10 81 82 74 East 13.6 15.7 - - - - - - 29.83 -
18:20 80 82 79 East 13.6 15.7 - - - - - - 29.82 -
18:30 80 82 77 East 11.7 13.4 - - - - - - 29.82 -
18:40 80 82 81 East 9.7 11.2 - - - - - - 29.82 -
18:50 80 82 82 East 11.7 13.4 12 7.55 exactly 7.5 4 1.64 0.82 - 2.46 12 6.56 5.74 - 7.38 29.82 -
19:00 80 82 81 East 11.7 13.4 - - - - - - 29.82 +0.03
19:10 80 82 82 East 11.7 13.4 - - - - - - 29.83 -
19:20 80 82 81 East 9.7 11.2 - - - - - - 29.83 -
19:30 80 82 82 East 9.7 11.2 - - - - - - 29.83 -
19:40 81 82 78 East 11.7 13.4 - - - - - - 29.83 -
19:50 81 82 79 East 11.7 13.4 12 7.55 exactly 7.5 5 3.28 2.46 - 4.10 12 6.56 5.74 - 7.38 29.83 -
20:00 80 82 80 East 9.7 11.2 - - - - - - 29.84 +0.03
20:20 81 82 73 East 11.7 13.4 - - - - - - 29.85 -
20:30 81 82 73 East 11.7 13.4 - - - - - - 29.85 -
20:40 81 82 73 East 11.7 13.4 - - - - - - 29.85 -
20:50 81 82 74 East 11.7 13.4 12 7.22 exactly 7.2 5 1.64 0.82 - 2.46 12 6.56 5.74 - 7.38 29.85 -
21:00 81 82 71 East 13.6 15.7 - - - - - - 29.86 +0.04
21:10 81 82 70 East 11.7 13.4 - - - - - - 29.86 -
21:40 81 82 74 East 13.6 15.7 - - - - - - 29.86 -
21:50 81 82 73 East 11.7 13.4 11 7.22 exactly 7.2 6 3.28 2.46 - 4.10 11 6.56 5.74 - 7.38 29.86 -
22:00 81 82 74 East 11.7 13.4 - - - - - - 29.86 +0.04
22:30 81 82 75 East 13.6 15.7 - - - - - - 29.85 -
22:40 81 82 75 East 11.7 13.4 - - - - - - 29.86 -
22:50 81 82 75 East 13.6 15.7 11 6.56 exactly 6.6 6 3.28 2.46 - 4.10 11 6.56 5.74 - 7.38 29.85 -
23:00 81 82 75 East 11.7 13.4 - - - - - - 29.85 +0.01
23:10 81
-
74 East 11.7 13.4 - - - - - - 29.85 -
23:20 81 82 74 East 11.7 13.4 - - - - - - 29.86 -
23:30 81 82 74 East 11.7 13.4 - - - - - - 29.86 -
23:40 81 82 74 East 13.6 15.7 - - - - - - 29.86 -
23:50 81 82 74 East 13.6 15.7 11 6.89 exactly 6.9 6 3.28 2.46 - 4.10 11 6.56 5.74 - 7.38 29.86 -
00:00 81 82 74 East 13.6 15.7 - - - - - - 29.86 -
00:10 81 82 74 East 13.6 15.7 - - - - - - 29.86 -
00:20 81 82 72 East 15.6 17.9 - - - - - - 29.86 -
00:30 82
-
East 15.6 17.9 - - - - - - 29.86 -
00:40 81 82 72 East 15.6 17.9 - - - - - - 29.86 -
00:50 81 82 74 East 13.6 15.7 11 7.22 exactly 7.2 7 4.92 4.10 - 5.74 11 6.56 5.74 - 7.38 29.86 -
01:00 81 82 74 East 15.6 17.9 - - - - - - 29.87 -0.01
01:30 81 82 74 ENE 13.6 15.7 - - - - - - 29.85 -
01:40 80 82 79 ENE 13.6 15.7 - - - - - - 29.84 -
01:50 79 82 83 ENE 13.6 15.7 11 7.22 exactly 7.2 7 4.92 4.10 - 5.74 11 6.56 5.74 - 7.38 29.84 -
02:00 79
-
83 NE 9.7 11.2 - - - - - - 29.83 -0.02
02:10 79 82 84 NE 11.7 13.4 - - - - - - 29.83 -
02:30 78 82 85 ENE 11.7 13.4 - - - - - - 29.83 -
02:40 79 82 83 East 9.7 11.2 - - - - - - 29.83 -
02:50 79 82 85 East 9.7 11.2 11 7.22 exactly 7.2 4 1.64 0.82 - 2.46 11 6.56 5.74 - 7.38 29.83 -
03:10 79 82 78 East 11.7 13.4 - - - - - - 29.83 -
03:30 80 82 75 ESE 13.6 15.7 - - - - - - 29.82 -
03:40 80 82 76 ESE 11.7 13.4 - - - - - - 29.82 -
03:50 80 82 75 ESE 13.6 15.7 9 6.89 exactly 6.9 6 3.28 2.46 - 4.10 9 6.56 5.74 - 7.38 29.82 -

Detailed Wave Spectra

Time Water Depth Wave Height Spectral Peak Period Average Wave Period Sampling Interval Wave Record
21:00 16234 ft 9.74 ft 13.8 sec 8.8 sec 0.6 sec 2400 sec
22:00 16234 ft 8.01 ft 12.9 sec 7.7 sec 0.6 sec 2400 sec
23:00 16234 ft 7.74 ft 12.1 sec 7.7 sec 0.6 sec 2400 sec
00:00 16234 ft 7.32 ft 13.8 sec 6.8 sec 0.6 sec 2400 sec
04:00 16234 ft 7.35 ft 13.8 sec 6.4 sec 0.6 sec 2400 sec
08:00 16234 ft 7.05 ft 12.1 sec 6.7 sec 0.6 sec 2400 sec
16:00 16234 ft 7.61 ft 12.9 sec 6.5 sec 0.6 sec 2400 sec
18:00 16234 ft 7.35 ft 11.4 sec 6.6 sec 0.6 sec 2400 sec